Weather History for PAIL - May, 2013

Change the Weather History Date:

Monday, May 20, 2013

  Actual Average Record
Temperature  
Mean Temperature 39 °F -  
Max Temperature 48 °F 52 °F 71 °F (1968)
Min Temperature 30 °F 37 °F 29 °F (1985)
Degree Days  
Heating Degree Days 26    
Moisture  
Dew Point 27 °F    
Average Humidity 59    
Maximum Humidity 76    
Minimum Humidity 40    
Precipitation  
Precipitation 0.00 in - - ()
Sea Level Pressure  
Sea Level Pressure 30.58 in    
Wind  
Wind Speed 5 mph (ESE)    
Max Wind Speed 16 mph    
Max Gust Speed 18 mph    
Visibility 10 miles    
Events      
Averages and records for this station are not official NWS values.
T = Trace of Precipitation, MM = Missing Value Source: NWS Daily Summary

Daily Weather History Graph

Daily Weather History Graph

Search for Another Location

Airport or City:

Trip Planner

Search our weather history database for the weather conditions in past years. The results will help you decide how hot, cold, wet, or windy it might be!

Date:

Astronomy

May. 20, 2013 Rise Set
Actual Time 5:31 AM AKDT 11:02 PM AKDT
Civil Twilight 4:24 AM AKDT 12:10 AM AKDT
Nautical Twilight 2:48 AM AKDT 1:43 AM AKDT
Astronomical Twilight Sun does not set Sun does not set
Moon 5:11 PM AKDT (5/20) 3:50 AM AKDT (5/20)
Length of Visible Light 19h 46m
Length of Day
17h 30m
Waxing Gibbous, 76% of the Moon is Illuminated
May 20
Waxing Gibbous
May 24
Full
May 31
Last Quarter
Jun 8
New
Jun 16
First Quarter

Hourly Weather History & Observations

Time (AKDT) Temp. Windchill Dew Point Humidity Pressure Visibility Wind Dir Wind Speed Gust Speed Precip Events Conditions
12:53 AM 36.0 °F - 21.9 °F 57% 30.63 in 10.0 mi Calm Calm - N/A   Clear
1:53 AM 35.1 °F - 21.9 °F 59% 30.63 in 10.0 mi Calm Calm - N/A   Clear
2:53 AM 36.0 °F - 26.1 °F 67% 30.63 in 10.0 mi Calm Calm - N/A   Clear
3:53 AM 33.1 °F 30.0 °F 25.0 °F 72% 30.63 in 10.0 mi North 3.5 mph - N/A   Clear
4:53 AM 30.9 °F 26.2 °F 21.9 °F 69% 30.62 in 10.0 mi NNE 4.6 mph - N/A   Clear
5:53 AM 32.0 °F 25.6 °F 21.0 °F 64% 30.62 in 10.0 mi NNE 6.9 mph - N/A   Clear
6:53 AM 30.9 °F 27.5 °F 23.0 °F 72% 30.61 in 10.0 mi North 3.5 mph - N/A   Clear
7:53 AM 37.0 °F 34.5 °F 24.1 °F 59% 30.61 in 10.0 mi NNE 3.5 mph - N/A   Clear
8:53 AM 39.0 °F 35.7 °F 25.0 °F 57% 30.61 in 10.0 mi East 4.6 mph - N/A   Clear
9:53 AM 41.0 °F 35.8 °F 25.0 °F 53% 30.60 in 10.0 mi East 8.1 mph - N/A   Clear
10:53 AM 43.0 °F 37.7 °F 24.1 °F 47% 30.60 in 10.0 mi ESE 9.2 mph - N/A   Clear
11:53 AM 44.1 °F 37.7 °F 21.9 °F 42% 30.59 in 10.0 mi East 12.7 mph - N/A   Clear
12:53 PM 45.0 °F 37.9 °F 21.9 °F 40% 30.58 in 10.0 mi East 16.1 mph - N/A   Clear
1:53 PM 45.0 °F 39.3 °F 25.0 °F 46% 30.59 in 10.0 mi SE 11.5 mph - N/A   Mostly Cloudy
2:53 PM 45.0 °F 38.5 °F 28.9 °F 53% 30.58 in 10.0 mi SSE 13.8 mph - N/A   Mostly Cloudy
3:53 PM 44.1 °F 37.7 °F 30.9 °F 60% 30.58 in 10.0 mi South 12.7 mph 18.4 mph N/A   Overcast
4:53 PM 46.0 °F 39.6 °F 32.0 °F 58% 30.56 in 10.0 mi South 15.0 mph - N/A   Overcast
5:53 PM 48.0 °F - 27.0 °F 44% 30.54 in 10.0 mi SE 8.1 mph - N/A   Overcast
6:53 PM 46.9 °F - 30.0 °F 52% 30.53 in 10.0 mi SSE 11.5 mph - N/A   Overcast
7:53 PM 44.1 °F 38.6 °F 30.9 °F 60% 30.52 in 10.0 mi SSE 10.4 mph - N/A   Mostly Cloudy
8:53 PM 43.0 °F 37.2 °F 32.0 °F 65% 30.52 in 10.0 mi SSE 10.4 mph - N/A   Overcast
9:53 PM 42.1 °F 38.4 °F 33.1 °F 70% 30.52 in 10.0 mi ESE 5.8 mph - N/A   Overcast
10:53 PM 39.0 °F 36.8 °F 32.0 °F 76% 30.52 in 10.0 mi ENE 3.5 mph - N/A   Clear
11:53 PM 39.0 °F 36.8 °F 32.0 °F 76% 30.51 in 10.0 mi ENE 3.5 mph - N/A   Scattered Clouds